Weather History for KTWF - April, 2013

Change the Weather History Date:

Friday, April 12, 2013

  Actual Average Record
Temperature  
Mean Temperature 47 °F -  
Max Temperature 61 °F 60 °F 73 °F (2003)
Min Temperature 33 °F 35 °F 23 °F (1997)
Degree Days  
Heating Degree Days 18 18  
Month to date heating degree days 179 226  
Since 1 July heating degree days 5127 5515  
Cooling Degree Days 0 0  
Month to date cooling degree days 0 0  
Year to date cooling degree days 0 0  
Moisture  
Dew Point 26 °F    
Average Humidity 44    
Maximum Humidity 59    
Minimum Humidity 28    
Precipitation  
Precipitation 0.00 in 0.03 in 0.13 in (1982)
Month to date precipitation 0.46 0.41  
Year to date precipitation 2.02 3.24  
Sea Level Pressure  
Sea Level Pressure 29.89 in    
Wind  
Wind Speed 10 mph (SW)    
Max Wind Speed 21 mph    
Max Gust Speed 25 mph    
Visibility 10 miles    
Events      
T = Trace of Precipitation, MM = Missing Value Source: NWS Daily Summary

Daily Weather History Graph

Daily Weather History Graph

Search for Another Location

Airport or City:

Trip Planner

Search our weather history database for the weather conditions in past years. The results will help you decide how hot, cold, wet, or windy it might be!

Date:

Astronomy

Apr. 12, 2013 Rise Set
Actual Time 7:01 AM MDT 8:16 PM MDT
Civil Twilight 6:32 AM MDT 8:45 PM MDT
Nautical Twilight 5:57 AM MDT 9:20 PM MDT
Astronomical Twilight 5:20 AM MDT 9:57 PM MDT
Moon 8:11 AM MDT (4/12) 10:54 PM MDT (4/12)
Length of Visible Light 14h 13m
Length of Day
13h 15m
Waxing Crescent, 5% of the Moon is Illuminated
Apr 12
Waxing Crescent
Apr 18
First Quarter
Apr 25
Full
May 2
Last Quarter
May 9
New

Hourly Weather History & Observations

Time (MDT) Temp. Windchill Dew Point Humidity Pressure Visibility Wind Dir Wind Speed Gust Speed Precip Events Conditions
12:53 AM 39.9 °F 31.8 °F 21.0 °F 47% 29.93 in 10.0 mi SSW 15.0 mph - N/A   Clear
1:53 AM 39.0 °F 30.6 °F 21.9 °F 50% 29.94 in 10.0 mi South 15.0 mph - N/A   Clear
2:53 AM 37.9 °F 28.9 °F 24.1 °F 57% 29.93 in 10.0 mi SSW 16.1 mph - N/A   Clear
3:53 AM 37.9 °F 29.2 °F 24.1 °F 57% 29.92 in 10.0 mi SW 15.0 mph - N/A   Clear
4:53 AM 37.0 °F 28.1 °F 24.1 °F 59% 29.93 in 10.0 mi SSW 15.0 mph - N/A   Clear
5:53 AM 37.0 °F 28.1 °F 24.1 °F 59% 29.93 in 10.0 mi SSW 15.0 mph 24.2 mph N/A   Clear
6:53 AM 35.1 °F 25.9 °F 23.0 °F 61% 29.96 in 10.0 mi SSW 13.8 mph - N/A   Clear
7:53 AM 37.9 °F 30.9 °F 23.0 °F 55% 30.00 in 10.0 mi SSW 10.4 mph - N/A   Clear
8:53 AM 42.1 °F 35.2 °F 24.1 °F 49% 30.03 in 10.0 mi WSW 12.7 mph - N/A   Clear
9:53 AM 45.0 °F 40.1 °F 25.0 °F 46% 30.02 in 10.0 mi WSW 9.2 mph - N/A   Clear
10:53 AM 48.9 °F - 25.0 °F 39% 30.00 in 10.0 mi WSW 8.1 mph - N/A   Clear
11:53 AM 52.0 °F - 26.1 °F 37% 29.99 in 10.0 mi WNW 9.2 mph - N/A   Clear
12:53 PM 53.1 °F - 26.1 °F 35% 29.97 in 10.0 mi WNW 6.9 mph - N/A   Clear
1:53 PM 55.0 °F - 26.1 °F 33% 29.94 in 10.0 mi West 8.1 mph - N/A   Clear
2:53 PM 57.0 °F - 27.0 °F 32% 29.91 in 10.0 mi North 4.6 mph - N/A   Clear
3:53 PM 57.9 °F - 27.0 °F 31% 29.87 in 10.0 mi North 5.8 mph - N/A   Clear
4:53 PM 59.0 °F - 26.1 °F 28% 29.83 in 10.0 mi Variable 3.5 mph - N/A   Clear
5:53 PM 59.0 °F - 27.0 °F 29% 29.80 in 10.0 mi ENE 5.8 mph - N/A   Clear
6:53 PM 57.0 °F - 27.0 °F 32% 29.78 in 10.0 mi NE 4.6 mph - N/A   Clear
7:53 PM 53.1 °F - 28.9 °F 40% 29.77 in 10.0 mi NNE 3.5 mph - N/A   Clear
8:53 PM 48.0 °F - 30.0 °F 50% 29.76 in 10.0 mi ESE 6.9 mph - N/A   Clear
9:53 PM 46.0 °F 41.4 °F 30.0 °F 54% 29.74 in 10.0 mi SE 9.2 mph - N/A   Clear
10:53 PM 46.9 °F - 30.9 °F 54% 29.72 in 10.0 mi SSW 9.2 mph - N/A   Clear
11:53 PM 51.1 °F - 30.0 °F 44% 29.67 in 10.0 mi South 11.5 mph - N/A   Overcast